カタログに戻る

COSMOS 858

運用中軍事LEO
NORAD 9443·PAYLOAD·🇷🇺 Russia

打ち上げ Sep 29, 1976 から Plesetsk Cosmodrome

Loading…

次のパス (今後24時間)

TLE

最新Source: Space-Track

元期: Sep 13, 2026, 20:28 UTC

1  9443U 76098A   26256.85328508  .00000090  00000-0  40477-4 0  9995
2  9443  74.0519 355.7566 0012711  92.9349 267.3259 14.35148483611477

AllMySatでCOSMOS 858をリアルタイム追跡

Download on the App Store